Regional Weather Roundup
Issued by NWS

Home | Current Version | Previous Version | Graphics & Text | Print | Product List | Glossary On
Versions: 1 2 3 4 5 6 7 8 9 10 11 12 13 14 15 16 17 18 19 20 21 22 23 24 25 26 27 28 29 30 31 32 33 34 35 36 37 38 39 40 41 42 43 44 45 46 47 48 49 50
211
ASUS43 KIND 181309
RWRIN

WEATHER ROUNDUP FOR INDIANA
NATIONAL WEATHER SERVICE INDIANAPOLIS IN
800 AM EST SAT NOV 18 2017

NOTE: "FAIR" INDICATES FEW OR NO CLOUDS BELOW 12,000 FEET WITH NO
SIGNIFICANT WEATHER AND/OR OBSTRUCTIONS TO VISIBILITY.

* - STATION DOES NOT REPORT WEATHER SUCH AS PRECIPITATION OR FOG.

+ - STATION NOT QUALITY CONTROLLED BY THE NATIONAL WEATHER SERVICE.
    USE DATA WITH CAUTION...ESPECIALLY DEWPOINT AND RELATIVE
    HUMIDITY OBSERVATIONS.

INZ001>003-010>013-019-020-181400-
NORTHWEST INDIANA

CITY           SKY/WX    TMP DP  RH WIND       PRES   REMARKS
GARY /AIRPORT/ RAIN      48  48 100 N9        29.47F
KNOX *+        CLOUDY    45  45 100 E5        29.45F
LA PORTE +     DRIZZLE   44  44 100 CALM      29.46F
MICHIGAN CITY+ RAIN      43  43 100 CALM      29.46F
MONTICELLO +   LGT RAIN  50  49  96 E3        29.43F
RENSSELAER +   RAIN      46  45  93 NE6       29.45R
VALPARAISO     FOG       47  45  93 N5        29.46S VSB 3/4

$$

LMZ046-743>745-181400-
SOUTHERN LAKE MICHIGAN

STATION/POSITION TIME  TEMP    WIND        PRES    WAVE
                       AIR SEA DIR/SP/G            HT
                 (UTC) (F)     (DEG/KT/KT) (MB)    (FT)
BURNS HARBOR     1240   47        CALM      998.0F
MICHIGAN CITY    1240   45      40/  4/  5   N/A

$$

INZ004-005-014>016-021>024-181400-
NORTH CENTRAL INDIANA

CITY           SKY/WX    TMP DP  RH WIND       PRES   REMARKS
ELKHART        CLOUDY    45  45 100 CALM      29.47  FOG
GOSHEN         CLOUDY    46  43  89 SE6       29.47F FOG
LOGANSPORT +   LGT RAIN  50  50 100 E3        29.44F VSB 3/4
ROCHESTER +    DRIZZLE   50  50 100 NE3       29.45F
SOUTH BEND     CLOUDY    44  44 100 E3        29.47F FOG
WARSAW +       CLOUDY    45  45 100 CALM      29.47F FOG

$$

INZ006>009-017-018-025>027-181400-
NORTHEAST INDIANA

CITY           SKY/WX    TMP DP  RH WIND       PRES   REMARKS
AUBURN +       CLOUDY    45  45 100 E5        29.49F FOG
FORT WAYNE     LGT RAIN  50  49  96 CALM      29.49F FOG
HUNTINGTON +   RAIN      48  47  96 CALM      29.47F
KENDALLVILLE + CLOUDY    45  45 100 CALM      29.49S FOG

$$

INZ028-029-035-036-043>045-051>053-181400-
WEST CENTRAL INDIANA

CITY           SKY/WX    TMP DP  RH WIND       PRES   REMARKS
CRAWFORDSVL +  TSTM      55  55 100 S18G24    29.43F
GREENCASTLE +  RAIN      57  54  88 S6G17     29.45F
LAFAYETTE      TSTM      52  52 100 CALM      29.43F
TERRE HAUTE    CLOUDY    62  55  77 S14G28    29.44F

$$

INZ030>032-037>040-046>048-054>057-064-065-181400-
CENTRAL INDIANA

CITY           SKY/WX    TMP DP  RH WIND       PRES   REMARKS
CP ATTERBURY + RAIN      61  54  77 S15G28    29.49F
COLUMBUS       CLOUDY    57  50  77 S13       29.52F
FRANKFORT +    CLOUDY    59  55  85 SW12      29.45F
GREENWOOD *+   CLOUDY    64  56  75 S14       29.46F
INDIANAPOLIS   TSTM      60  54  80 SW14      29.47F
-EAGLE CREEK   LGT RAIN  61  54  77 S9G18     29.44F
KOKOMO +       CLOUDY    52  51  97 SE7       29.44F
MARION +       CLOUDY    52  50  94 S10       29.46F FOG
MT COMFORT *+  CLOUDY    54  52  94 S9        29.47F
SHELBYVILLE    CLOUDY    58  49  72 S14       29.48F
ZIONSVILLE +   RAIN      57  54  89 S14G21    29.45F

$$

INZ033-034-041-042-049-050-058-059-181400-
EAST CENTRAL INDIANA

CITY           SKY/WX    TMP DP  RH WIND       PRES   REMARKS
MUNCIE         CLOUDY    52  48  86 SE8       29.49F
RICHMOND +     CLOUDY    54  48  82 SW18      29.52F

$$

INZ060-061-067>069-081>083-085>088-181400-
SOUTHWEST INDIANA

CITY           SKY/WX    TMP DP  RH WIND       PRES   REMARKS
EVANSVILLE     CLOUDY    64  58  80 S16G23    29.55F
HUNTINGBURG +  LGT RAIN  62  56  80 S23G29    29.55F
WASHINGTON +   CLOUDY    62  53  73 S17       29.49F

$$

INZ062-063-066-070>080-084-089>092-181400-
SOUTH CENTRAL AND SOUTHEAST INDIANA

CITY           SKY/WX    TMP DP  RH WIND       PRES   REMARKS
BEDFORD +      CLOUDY    63  54  72 S18G26    29.51F
BLOOMINGTON    CLOUDY    63  54  72 SW18G26   29.48F
MADISON *+     CLOUDY    61  50  67 S16G23    29.58F
NORTH VERNON + CLOUDY    59  50  72 S13G21    29.55F
SEYMOUR +      CLOUDY    61  50  67 S17G23    29.54F

$$





USA.gov is the U.S. government's official web portal to all federal, state and local government web resources and services.